KJ7AZ-3 Weather Reports


time (UTC)temp
F
wind
direction
speed
knots
gust
knots
rain 1hr
in
rain 24hr
in
rain mn
in
humidity
%
barometer
mb
20260831093314 66 101 0.0 0.0 0.00 0.00 0.00
20260831091814 67 101 0.0 0.0 0.00 0.00 0.00
20260831090314 67 101 0.0 0.0 0.00 0.00 0.00
20260831084813 68 101 0.0 0.0 0.00 0.00 0.00
20260831083313 68 101 0.0 0.0 0.00 0.00 0.00
20260831081813 68 101 0.0 0.0 0.00 0.00 0.00
20260831080314 68 101 0.0 0.0 0.00 0.00 0.00
20260831074812 69 101 0.0 0.0 0.00 0.00 0.00
20260831073312 69 101 0.0 0.0 0.00 0.00 0.00
20260831071812 70 226 0.0 0.0 0.00 0.00 0.00
20260831070311 70 226 0.0 0.0 0.00 0.00 0.00
20260831064812 69 226 0.0 0.0 0.00 0.00 0.00
20260831063311 69 226 0.0 0.0 0.00 0.00 0.00
20260831060310 70 226 0.0 0.0 0.00 0.00 0.00
20260831053312 69 73 0.0 0.0 0.00 0.00 0.00
20260831051810 71 73 0.0 0.0 0.00 0.00 0.00
20260831050309 73 136 0.0 0.0 0.00 0.00 0.00
20260831044808 73 136 0.0 0.0 0.00 0.00 0.00
20260831043307 75 136 0.0 0.0 0.00 0.00 0.00
20260831041806 76 339 0.9 0.0 0.00 0.00 0.00
20260831040306 76 226 0.0 0.0 0.00 0.00 0.00
20260831034805 77 226 0.0 0.0 0.00 0.00 0.00
20260831033305 77 152 0.0 0.0 0.00 0.00 0.00
20260831031804 77 322 0.0 0.0 0.00 0.00 0.00
20260831030304 77 339 3.5 0.9 0.00 0.00 0.00
20260831024803 76 294 0.9 0.0 0.00 0.00 0.00
20260831023303 76 122 0.0 0.0 0.00 0.00 0.00
20260831021802 77 122 0.0 0.0 0.00 0.00 0.00
20260831020302 76 97 0.0 0.0 0.00 0.00 0.00
20260831014801 77 94 0.9 0.9 0.00 0.00 0.00
20260831013300 77 117 0.0 0.0 0.00 0.00 0.00
20260831010259 80 98 1.7 1.7 0.00 0.00 0.00
20260831004758 81 117 1.7 0.0 0.00 0.00 0.00
20260831003257 75 129 2.6 3.5 0.00 0.00 0.00
20260831001757 74 139 0.9 2.6 0.00 0.00 0.00
20260831000256 87 87 6.1 7.8 0.00 0.00 0.00
20260830233253 92 342 1.7 3.5 0.00 0.00 0.00
20260830231752 97 44 0.9 0.0 0.00 0.00 0.00
20260830230251 95 322 0.9 5.2 0.00 0.00 0.00
20260830224751 94 352 1.7 1.7 0.00 0.00 0.00
20260830223249 97 264 2.6 3.5 0.00 0.00 0.00
20260830221748 94 8 0.9 0.9 0.00 0.00 0.00
20260830220247 99 338 3.5 6.1 0.00 0.00 0.00
20260830213246 96 20 0.0 0.0 0.00 0.00 0.00
20260830210243 100 288 2.6 3.5 0.00 0.00 0.00
20260830204742 98 32 5.2 5.2 0.00 0.00 0.00
20260830203241 96 23 1.7 0.0 0.00 0.00 0.00
20260830201740 96 338 0.0 0.0 0.00 0.00 0.00
20260830200240 93 295 2.6 0.0 0.00 0.00 0.00
20260830194738 95 354 0.9 0.0 0.00 0.00 0.00
20260830193237 94 186 1.7 0.9 0.00 0.00 0.00
20260830190235 92 256 1.7 4.3 0.00 0.00 0.00
20260830184735 91 219 1.7 0.9 0.00 0.00 0.00
20260830183234 91 291 0.9 0.0 0.00 0.00 0.00
20260830181733 89 359 1.7 0.0 0.00 0.00 0.00
20260830180232 90 207 1.7 0.0 0.00 0.00 0.00
20260830174732 88 293 1.7 2.6 0.00 0.00 0.00
20260830173231 90 336 0.0 0.0 0.00 0.00 0.00
20260830171730 88 288 2.6 5.2 0.00 0.00 0.00
20260830170230 87 218 1.7 0.9 0.00 0.00 0.00
20260830164729 86 332 1.7 0.0 0.00 0.00 0.00
20260830163228 85 326 0.9 1.7 0.00 0.00 0.00
20260830161729 87 228 0.9 0.0 0.00 0.00 0.00
20260830160229 85 288 3.5 3.5 0.00 0.00 0.00
20260830154727 84 312 2.6 2.6 0.00 0.00 0.00
20260830153227 84 321 0.0 5.2 0.00 0.00 0.00
20260830151727 84 52 0.0 0.0 0.00 0.00 0.00
20260830150227 86 349 0.0 0.0 0.00 0.00 0.00
20260830144729 83 349 0.0 0.0 0.00 0.00 0.00
20260830143226 79 349 0.0 0.0 0.00 0.00 0.00
20260830141726 78 349 0.0 0.0 0.00 0.00 0.00
20260830140227 75 349 0.0 0.0 0.00 0.00 0.00
20260830134726 71 349 0.0 0.0 0.00 0.00 0.00
20260830133226 71 349 0.0 0.0 0.00 0.00 0.00
20260830131726 68 349 0.0 0.0 0.00 0.00 0.00
20260830130226 64 349 0.0 0.0 0.00 0.00 0.00
20260830124727 60 349 0.0 0.0 0.00 0.00 0.00
20260830123227 58 349 0.0 0.0 0.00 0.00 0.00
20260830121728 58 349 0.0 0.0 0.00 0.00 0.00